Regional Weather Roundup
Issued by NWS Midland/Odessa, TX

Skip options and go directly to product.
Home | Oldest Version | Previous Version | Current Version | All | Text Only | Save Text | Print | Product List | Glossary Off

Skip product version selection by date and time.   

926
ASUS44 KMAF 031710
RWRMAF
MIDLAND AREA WEATHER ROUNDUP
NATIONAL WEATHER SERVICE MIDLAND TX
1200 PM CDT FRI JUL 03 2015

...IN SOUTHWEST TEXAS AND SOUTHEAST NEW MEXICO...

CITY           SKY/WX    TMP DP  RH WIND       PRES   REMARKS
ALPINE         PTSUNNY   78  60  54 NE8       30.17S
ANDREWS        FAIR      82  64  55 SE9       30.07F
ARTESIA        MOSUNNY   84  61  45 N12       30.09F
BIG SPRING     MOSUNNY   82  64  54 S5        30.08S
CARLSBAD       SUNNY     86  63  45 NW6       30.06S
DRYDEN           N/A     77  67  71 VRB7      30.00S
FORT STOCKTON  PTSUNNY   81  64  56 E9        30.05R
GUAD PASS      CLOUDY    77  61  57 NE20G30   30.19R
HOBBS          MOSUNNY   82  63  51 NE5       30.10S
MARFA          PTSUNNY   79  57  47 NE10G16   30.15R
MIDLAND AIRPK  MOSUNNY   83  65  55 SE5       30.07S
MIDLAND INTL   MOSUNNY   80  66  62 VRB3      30.06S
ODESSA         MOSUNNY   79  64  60 CALM      30.07S
PECOS          SUNNY     83  64  52 NE5       30.03R
PRESIDIO       NOT AVBL
SEMINOLE       MOSUNNY   83  63  51 NE7       30.09S
SNYDER         MOSUNNY   78  68  71 SW8       30.07R
WINK           MOSUNNY   84  64  50 E8        30.03S
$$
...OTHER STATIONS IN TEXAS...

CITY           SKY/WX    TMP DP  RH WIND       PRES   REMARKS
ABILENE        MOSUNNY   86  65  49 SW17G24   30.04R
AMARILLO       SUNNY     82  64  54 N8        30.10S
AUSTIN         MOSUNNY   86  73  65 S13       30.01R
BROWNSVILLE    MOSUNNY   90  75  61 SE17G24   29.97R HX 100
CORPUS CHRISTI MOSUNNY   88  73  61 SE18      29.98R
DALLAS FTW     CLOUDY    87  69  54 SW18G28   29.97S
DEL RIO        MOSUNNY   83  69  62 SE14      29.95F
EL PASO        CLOUDY    85  57  38 N12       30.06F
HOUSTON INT    PTSUNNY   89  74  60 CALM      30.00S
LUBBOCK        PTSUNNY   81  63  54 CALM      30.08R
SAN ANGELO     MOSUNNY   84  65  52 S13       30.03F
SAN ANTONIO    PTSUNNY   84  71  65 S10       30.01S
WACO           CLOUDY    87  70  56 SW12      30.00S
WICHITA FALLS  NOT AVBL
$$
...OTHER LOCATIONS IN NEW MEXICO...

CITY           SKY/WX    TMP DP  RH WIND       PRES   REMARKS
ALAMAGORDO     PTSUNNY   79  55  44 CALM      30.12S
ALBUQUERQUE    PTSUNNY   77  57  50 SW5       30.21S
CANNON AFB     CLOUDY    80  57  44 S7        30.13R
CLOVIS         CLOUDY    81  57  44 NE10        N/A
HOLLOMAN AFB   PTSUNNY   81  58  46 NE6       30.10S
ROSWELL        MOSUNNY   83  65  54 N12G18    30.10S
RUIDOSO        CLOUDY    63  59  88 SE7       30.35R
SANTA FE       PTSUNNY   75  52  44 CALM      30.27S
TRUTH OR CONSE SUNNY     81  58  45 VRB6      30.14F
TUCUMCARI      PTSUNNY   80  60  50 SW6       30.12S
$$

USA.gov is the U.S. government's official web portal to all federal, state and local government web resources and services.